Starlink 4666

operational
NORAD ID: 53789 Int'l Des: 2022-111 Owner: SPXS Country: US Constellation: starlink
LEOCIRCULAR

About Starlink 4666

Description loading...

Live Position

Loading 3D Globe...

Upcoming Passes

Altitude History

Altitude vs Time

uPlot chart will show altitude changes over time

Two-Line Element Set

1 53789U 22111S 25296.92752880 .00012914 00000-0 82777-3 0 9995
2 53789 53.2153 167.7908 0001263 112.2006 247.9121 15.08848878173043
Epoch: Oct 23, 2025 • Age: 19 hours

Current Status

Altitude 547.7 km
Velocity 7.59 km/s
Sub-Earth Point -25.23°S, 147.56°W
Launch Date Sep 11, 2022
Age 3.1 years
Type internet

Technical Details

Classification Payload
Mass 305.00 kg
Dry Mass 290.00 kg
Total Mass 305.00 kg
Length 0.20 m
Diameter 2.80 m
Span 9.00 m
Shape Box + pan
Manufacturer SPXS
Bus Type Starlink
Phase Status In Orbit
Owner/State SPXS/US

Large Constellations

Loading constellations...